Time,TemperatureF,DewpointF,PressureIn,WindDirection,WindDirectionDegrees,WindSpeedMPH,WindSpeedGustMPH,Humidity,HourlyPrecipIn,Conditions,Clouds,dailyrainin,SoftwareType,DateUTC
2013-04-04 00:00:00,30.7,13.3,30.34,NNE,21,0.0,3.0,48,0.00,CLR,CLR,0.00,WeatherDisplay:10.37,2013-04-04 04:00:00,
2013-04-04 00:04:00,30.7,13.3,30.35,North,0,1.1,1.1,48,0.00,CLR,,0.00,WeatherDisplay:10.37,2013-04-04 04:04:00,
2013-04-04 00:05:00,30.7,13.3,30.35,NNE,13,0.0,1.0,48,0.00,CLR,CLR,0.00,WeatherDisplay:10.37,2013-04-04 04:05:00,
2013-04-04 00:10:00,30.7,12.9,30.35,North,0,0.0,0.0,47,0.00,CLR,CLR,0.00,WeatherDisplay:10.37,2013-04-04 04:10:00,
2013-04-04 00:15:00,30.7,12.9,30.35,North,0,0.0,0.0,47,0.00,CLR,CLR,0.00,WeatherDisplay:10.37,2013-04-04 04:15:00,
2013-04-04 00:20:00,30.5,12.6,30.35,North,0,0.0,0.0,47,0.00,CLR,CLR,0.00,WeatherDisplay:10.37,2013-04-04 04:20:00,
2013-04-04 00:25:00,29.8,12.5,30.35,North,0,0.0,0.0,48,0.00,CLR,CLR,0.00,WeatherDisplay:10.37,2013-04-04 04:25:00,
2013-04-04 00:30:00,29.5,12.2,30.35,North,0,0.0,0.0,48,0.00,CLR,CLR,0.00,WeatherDisplay:10.37,2013-04-04 04:30:00,
2013-04-04 00:35:00,29.1,11.8,30.35,North,0,0.0,0.0,48,0.00,CLR,CLR,0.00,WeatherDisplay:10.37,2013-04-04 04:35:00,
2013-04-04 00:40:00,28.8,12.0,30.35,North,0,0.0,0.0,49,0.00,CLR,CLR,0.00,WeatherDisplay:10.37,2013-04-04 04:40:00,
2013-04-04 00:45:00,28.8,12.0,30.35,North,0,0.0,0.0,49,0.00,CLR,CLR,0.00,WeatherDisplay:10.37,2013-04-04 04:45:00,
2013-04-04 00:50:00,28.8,12.0,30.35,North,0,0.0,0.0,49,0.00,CLR,CLR,0.00,WeatherDisplay:10.37,2013-04-04 04:50:00,
2013-04-04 00:55:00,28.0,11.8,30.35,North,0,0.0,0.0,50,0.00,CLR,CLR,0.00,WeatherDisplay:10.37,2013-04-04 04:55:00,
2013-04-04 01:00:00,27.7,11.4,30.35,North,0,0.0,0.0,50,0.00,CLR,CLR,0.00,WeatherDisplay:10.37,2013-04-04 05:00:00,
2013-04-04 01:05:00,27.6,11.3,30.35,North,0,0.0,0.0,50,0.00,CLR,CLR,0.00,WeatherDisplay:10.37,2013-04-04 05:05:00,
2013-04-04 01:10:00,27.1,11.4,30.35,North,0,0.0,0.0,51,0.00,CLR,,0.00,WeatherDisplay:10.37,2013-04-04 05:10:00,
2013-04-04 01:15:00,27.0,11.7,30.36,North,0,0.0,0.0,52,0.00,CLR,CLR,0.00,WeatherDisplay:10.37,2013-04-04 05:15:00,
2013-04-04 01:20:00,26.8,11.5,30.35,North,0,0.0,0.0,52,0.00,CLR,,0.00,WeatherDisplay:10.37,2013-04-04 05:20:00,
2013-04-04 01:25:00,26.4,11.2,30.35,North,0,0.0,0.0,52,0.00,CLR,,0.00,WeatherDisplay:10.37,2013-04-04 05:25:00,
2013-04-04 01:30:00,26.4,11.6,30.35,North,0,0.0,0.0,53,0.00,CLR,,0.00,WeatherDisplay:10.37,2013-04-04 05:30:00,
2013-04-04 01:35:00,26.2,11.0,30.35,North,0,0.0,0.0,52,0.00,CLR,,0.00,WeatherDisplay:10.37,2013-04-04 05:35:00,
2013-04-04 01:40:00,25.9,11.1,30.35,North,0,0.0,0.0,53,0.00,CLR,,0.00,WeatherDisplay:10.37,2013-04-04 05:40:00,
2013-04-04 01:45:00,25.7,10.9,30.35,North,0,0.0,0.0,53,0.00,CLR,,0.00,WeatherDisplay:10.37,2013-04-04 05:45:00,
2013-04-04 01:50:00,25.5,10.7,30.35,North,0,0.0,0.0,53,0.00,CLR,,0.00,WeatherDisplay:10.37,2013-04-04 05:50:00,
2013-04-04 01:55:00,25.3,11.0,30.35,North,0,0.0,0.0,54,0.00,CLR,,0.00,WeatherDisplay:10.37,2013-04-04 05:55:00,
2013-04-04 02:00:00,25.2,10.8,30.35,North,0,0.0,0.0,54,0.00,CLR,,0.00,WeatherDisplay:10.37,2013-04-04 06:00:00,
2013-04-04 02:06:00,25.0,10.7,30.35,North,0,0.0,0.0,54,0.00,CLR,,0.00,WeatherDisplay:10.37,2013-04-04 06:06:00,
2013-04-04 02:11:00,24.6,11.1,30.34,North,0,0.0,0.0,56,0.00,CLR,,0.00,WeatherDisplay:10.37,2013-04-04 06:11:00,
2013-04-04 02:16:00,24.6,11.1,30.35,North,0,0.0,0.0,56,0.00,CLR,,0.00,WeatherDisplay:10.37,2013-04-04 06:16:00,
2013-04-04 02:22:00,24.4,11.0,30.34,North,0,0.0,0.0,56,0.00,CLR,,0.00,WeatherDisplay:10.37,2013-04-04 06:22:00,
2013-04-04 02:28:00,24.3,10.8,30.35,North,0,0.0,0.0,56,0.00,CLR,,0.00,WeatherDisplay:10.37,2013-04-04 06:28:00,
2013-04-04 02:33:00,24.1,10.6,30.35,North,0,0.0,0.0,56,0.00,CLR,,0.00,WeatherDisplay:10.37,2013-04-04 06:33:00,
2013-04-04 02:38:00,24.1,11.0,30.35,North,0,0.0,0.0,57,0.00,CLR,,0.00,WeatherDisplay:10.37,2013-04-04 06:38:00,
2013-04-04 02:43:00,23.9,10.9,30.34,North,0,0.0,0.0,57,0.00,CLR,,0.00,WeatherDisplay:10.37,2013-04-04 06:43:00,
2013-04-04 02:48:00,23.9,11.3,30.34,North,0,0.0,0.0,58,0.00,CLR,,0.00,WeatherDisplay:10.37,2013-04-04 06:48:00,
2013-04-04 02:53:00,23.7,11.1,30.34,North,0,0.0,0.0,58,0.00,CLR,,0.00,WeatherDisplay:10.37,2013-04-04 06:53:00,
2013-04-04 02:58:00,23.5,10.9,30.34,North,0,0.0,0.0,58,0.00,CLR,,0.00,WeatherDisplay:10.37,2013-04-04 06:58:00,
2013-04-04 03:03:00,23.5,10.9,30.34,NNE,22,0.0,0.0,58,0.00,CLR,,0.00,WeatherDisplay:10.37,2013-04-04 07:03:00,
2013-04-04 03:08:00,23.4,11.1,30.33,NNE,22,0.0,0.0,59,0.00,CLR,,0.00,WeatherDisplay:10.37,2013-04-04 07:08:00,
2013-04-04 03:13:00,23.4,11.1,30.34,NNE,22,0.0,0.0,59,0.00,CLR,,0.00,WeatherDisplay:10.37,2013-04-04 07:13:00,
2013-04-04 03:19:00,23.2,11.0,30.34,NNE,22,0.0,0.0,59,0.00,CLR,,0.00,WeatherDisplay:10.37,2013-04-04 07:19:00,
2013-04-04 03:24:00,23.0,10.8,30.34,NNE,22,0.0,0.0,59,0.00,CLR,,0.00,WeatherDisplay:10.37,2013-04-04 07:24:00,
2013-04-04 03:30:00,23.0,11.2,30.34,NNE,22,0.0,0.0,60,0.00,CLR,CLR,0.00,WeatherDisplay:10.37,2013-04-04 07:30:00,
2013-04-04 03:35:00,22.8,11.0,30.34,NNE,22,0.0,0.0,60,0.00,CLR,CLR,0.00,WeatherDisplay:10.37,2013-04-04 07:35:00,
2013-04-04 03:40:00,22.8,11.0,30.35,NNE,22,0.0,0.0,60,0.00,CLR,,0.00,WeatherDisplay:10.37,2013-04-04 07:40:00,
2013-04-04 03:45:00,22.8,11.4,30.34,NNE,22,0.0,0.0,61,0.00,CLR,,0.00,WeatherDisplay:10.37,2013-04-04 07:45:00,
2013-04-04 03:50:00,22.8,11.4,30.34,NNE,22,0.0,0.0,61,0.00,CLR,,0.00,WeatherDisplay:10.37,2013-04-04 07:50:00,
2013-04-04 03:55:00,22.6,11.2,30.34,NNE,22,0.0,0.0,61,0.00,CLR,,0.00,WeatherDisplay:10.37,2013-04-04 07:55:00,
2013-04-04 04:02:00,22.6,11.2,30.34,NNE,22,0.0,0.0,61,0.00,CLR,,0.00,WeatherDisplay:10.37,2013-04-04 08:02:00,
2013-04-04 04:07:00,22.6,11.2,30.33,NNE,22,0.0,0.0,61,0.00,CLR,,0.00,WeatherDisplay:10.37,2013-04-04 08:07:00,
2013-04-04 04:12:00,22.5,11.0,30.33,NNE,22,0.0,0.0,61,0.00,CLR,,0.00,WeatherDisplay:10.37,2013-04-04 08:12:00,
2013-04-04 04:17:00,22.3,10.9,30.33,NNE,22,0.0,0.0,61,0.00,CLR,,0.00,WeatherDisplay:10.37,2013-04-04 08:17:00,
2013-04-04 04:22:00,22.3,11.2,30.34,NNE,22,0.0,0.0,62,0.00,CLR,,0.00,WeatherDisplay:10.37,2013-04-04 08:22:00,
2013-04-04 04:28:00,22.3,11.2,30.34,NNE,22,0.0,0.0,62,0.00,CLR,,0.00,WeatherDisplay:10.37,2013-04-04 08:28:00,
2013-04-04 04:33:00,22.3,11.2,30.34,NNE,22,0.0,0.0,62,0.00,CLR,,0.00,WeatherDisplay:10.37,2013-04-04 08:33:00,
2013-04-04 04:38:00,22.5,11.4,30.34,NNE,22,0.0,0.0,62,0.00,CLR,,0.00,WeatherDisplay:10.37,2013-04-04 08:38:00,
2013-04-04 04:43:00,22.5,11.4,30.34,NNE,22,0.0,0.0,62,0.00,CLR,,0.00,WeatherDisplay:10.37,2013-04-04 08:43:00,
2013-04-04 04:48:00,22.3,11.6,30.34,NNE,22,0.0,0.0,63,0.00,CLR,,0.00,WeatherDisplay:10.37,2013-04-04 08:48:00,
2013-04-04 04:54:00,22.3,11.6,30.34,NNE,22,0.0,0.0,63,0.00,CLR,,0.00,WeatherDisplay:10.37,2013-04-04 08:54:00,
2013-04-04 05:00:00,22.3,11.6,30.35,NNE,22,0.0,0.0,63,0.00,CLR,CLR,0.00,WeatherDisplay:10.37,2013-04-04 09:00:00,
2013-04-04 05:05:00,22.3,11.6,30.34,NNE,22,0.0,0.0,63,0.00,CLR,CLR,0.00,WeatherDisplay:10.37,2013-04-04 09:05:00,
2013-04-04 05:10:00,22.3,11.9,30.35,NNE,22,0.0,0.0,64,0.00,CLR,CLR,0.00,WeatherDisplay:10.37,2013-04-04 09:10:00,
2013-04-04 05:15:00,22.3,11.9,30.34,NNE,22,0.0,0.0,64,0.00,CLR,CLR,0.00,WeatherDisplay:10.37,2013-04-04 09:15:00,
2013-04-04 05:20:00,22.3,11.9,30.34,NNE,22,0.0,0.0,64,0.00,CLR,CLR,0.00,WeatherDisplay:10.37,2013-04-04 09:20:00,
2013-04-04 05:25:00,22.3,11.9,30.35,NNE,22,0.0,0.0,64,0.00,CLR,,0.00,WeatherDisplay:10.37,2013-04-04 09:25:00,
2013-04-04 05:30:00,22.3,11.9,30.35,NNE,22,0.0,0.0,64,0.00,CLR,,0.00,WeatherDisplay:10.37,2013-04-04 09:30:00,
2013-04-04 05:35:00,22.3,11.9,30.35,NNE,22,0.0,0.0,64,0.00,CLR,,0.00,WeatherDisplay:10.37,2013-04-04 09:35:00,
2013-04-04 05:40:00,22.1,11.8,30.34,NNE,22,0.0,0.0,64,0.00,CLR,,0.00,WeatherDisplay:10.37,2013-04-04 09:40:00,
2013-04-04 05:45:00,22.1,12.1,30.35,NNE,22,0.0,0.0,65,0.00,CLR,,0.00,WeatherDisplay:10.37,2013-04-04 09:45:00,
2013-04-04 05:50:00,22.1,12.1,30.35,NNE,22,0.0,0.0,65,0.00,CLR,,0.00,WeatherDisplay:10.37,2013-04-04 09:50:00,
2013-04-04 05:55:00,21.9,11.9,30.34,NNE,22,0.0,0.0,65,0.00,CLR,,0.00,WeatherDisplay:10.37,2013-04-04 09:55:00,
2013-04-04 06:00:00,21.9,11.9,30.35,NNE,22,0.0,0.0,65,0.00,CLR,,0.00,WeatherDisplay:10.37,2013-04-04 10:00:00,
2013-04-04 06:05:00,21.9,11.9,30.34,NNE,22,0.0,0.0,65,0.00,CLR,,0.00,WeatherDisplay:10.37,2013-04-04 10:05:00,
2013-04-04 06:10:00,21.9,11.9,30.34,NNE,22,0.0,0.0,65,0.00,CLR,,0.00,WeatherDisplay:10.37,2013-04-04 10:10:00,
2013-04-04 06:16:00,21.9,11.9,30.34,NNE,22,0.0,0.0,65,0.00,CLR,,0.00,WeatherDisplay:10.37,2013-04-04 10:16:00,
2013-04-04 06:21:00,21.7,11.8,30.34,NNE,22,0.0,0.0,65,0.00,CLR,,0.00,WeatherDisplay:10.37,2013-04-04 10:21:00,
2013-04-04 06:27:00,21.7,11.8,30.33,NNE,22,0.0,0.0,65,0.00,CLR,,0.00,WeatherDisplay:10.37,2013-04-04 10:27:00,
2013-04-04 06:32:00,21.7,11.8,30.33,NNE,22,0.0,0.0,65,0.00,CLR,,0.00,WeatherDisplay:10.37,2013-04-04 10:32:00,
2013-04-04 06:37:00,21.9,12.3,30.33,NNE,22,0.0,0.0,66,0.00,CLR,,0.00,WeatherDisplay:10.37,2013-04-04 10:37:00,
2013-04-04 06:43:00,21.9,12.3,30.33,NNE,22,0.0,0.0,66,0.00,CLR,,0.00,WeatherDisplay:10.37,2013-04-04 10:43:00,
2013-04-04 06:48:00,21.9,12.3,30.34,NNE,22,0.0,0.0,66,0.00,CLR,,0.00,WeatherDisplay:10.37,2013-04-04 10:48:00,
2013-04-04 06:54:00,21.9,12.3,30.34,NNE,22,0.0,0.0,66,0.00,CLR,,0.00,WeatherDisplay:10.37,2013-04-04 10:54:00,
2013-04-04 06:59:00,21.9,12.3,30.34,NNE,22,0.0,0.0,66,0.00,CLR,,0.00,WeatherDisplay:10.37,2013-04-04 10:59:00,
2013-04-04 07:04:00,21.9,12.3,30.35,NNE,22,0.0,0.0,66,0.00,CLR,,0.00,WeatherDisplay:10.37,2013-04-04 11:04:00,
2013-04-04 07:09:00,21.9,12.3,30.35,NNE,22,0.0,0.0,66,0.00,CLR,,0.00,WeatherDisplay:10.37,2013-04-04 11:09:00,
2013-04-04 07:15:00,21.9,12.3,30.35,NNE,22,0.0,0.0,66,0.00,CLR,CLR,0.00,WeatherDisplay:10.37,2013-04-04 11:15:00,
2013-04-04 07:20:00,22.0,12.4,30.35,NNE,22,0.0,0.0,66,0.00,CLR,CLR,0.00,WeatherDisplay:10.37,2013-04-04 11:20:00,
2013-04-04 07:25:00,22.3,12.6,30.35,NNE,22,0.0,0.0,66,0.00,CLR,CLR,0.00,WeatherDisplay:10.37,2013-04-04 11:25:00,
2013-04-04 07:30:00,22.3,13.0,30.35,NNE,22,0.0,0.0,67,0.00,CLR,CLR,0.00,WeatherDisplay:10.37,2013-04-04 11:30:00,
2013-04-04 07:35:00,22.3,13.0,30.35,NNE,22,0.0,0.0,67,0.00,CLR,CLR,0.00,WeatherDisplay:10.37,2013-04-04 11:35:00,
2013-04-04 07:40:00,22.5,13.2,30.35,NNE,22,0.0,0.0,67,0.00,CLR,CLR,0.00,WeatherDisplay:10.37,2013-04-04 11:40:00,
2013-04-04 07:45:00,22.8,13.5,30.35,NNE,22,0.0,0.0,67,0.00,CLR,CLR,0.00,WeatherDisplay:10.37,2013-04-04 11:45:00,
2013-04-04 07:50:00,22.8,13.5,30.36,NNE,22,0.0,0.0,67,0.00,CLR,CLR,0.00,WeatherDisplay:10.37,2013-04-04 11:50:00,
2013-04-04 07:55:00,23.2,14.2,30.36,NNE,22,0.0,0.0,68,0.00,CLR,CLR,0.00,WeatherDisplay:10.37,2013-04-04 11:55:00,
2013-04-04 08:00:00,23.4,14.4,30.37,NNE,22,0.0,0.0,68,0.00,CLR,,0.00,WeatherDisplay:10.37,2013-04-04 12:00:00,
2013-04-04 08:05:00,23.5,14.5,30.37,NNE,22,0.0,0.0,68,0.00,CLR,,0.00,WeatherDisplay:10.37,2013-04-04 12:05:00,
2013-04-04 08:11:00,23.5,14.5,30.37,NNE,22,0.0,0.0,68,0.00,CLR,,0.00,WeatherDisplay:10.37,2013-04-04 12:11:00,
2013-04-04 08:16:00,23.5,14.5,30.36,NNE,24,0.0,0.0,68,0.00,CLR,,0.00,WeatherDisplay:10.37,2013-04-04 12:16:00,
2013-04-04 08:22:00,23.5,14.5,30.36,NNE,24,0.0,0.0,68,0.00,CLR,,0.00,WeatherDisplay:10.37,2013-04-04 12:22:00,
2013-04-04 08:28:00,25.2,16.4,30.36,NNE,22,0.0,0.0,69,0.00,CLR,,0.00,WeatherDisplay:10.37,2013-04-04 12:28:00,
2013-04-04 08:33:00,25.5,16.8,30.36,NNE,22,0.0,0.0,69,0.00,CLR,,0.00,WeatherDisplay:10.37,2013-04-04 12:33:00,
2013-04-04 08:38:00,25.9,17.1,30.36,NNE,22,0.0,0.0,69,0.00,CLR,,0.00,WeatherDisplay:10.37,2013-04-04 12:38:00,
2013-04-04 08:44:00,26.4,17.6,30.36,NNE,22,0.0,0.0,69,0.00,CLR,,0.00,WeatherDisplay:10.37,2013-04-04 12:44:00,
2013-04-04 08:50:00,26.9,18.1,30.36,NE,49,2.0,3.0,69,0.00,CLR,CLR,0.00,WeatherDisplay:10.37,2013-04-04 12:50:00,
2013-04-04 08:55:00,27.5,18.7,30.36,SSE,150,1.0,3.0,69,0.00,CLR,CLR,0.00,WeatherDisplay:10.37,2013-04-04 12:55:00,
2013-04-04 09:00:00,28.2,19.0,30.37,South,173,1.0,3.0,68,0.00,CLR,CLR,0.00,WeatherDisplay:10.37,2013-04-04 13:00:00,
2013-04-04 09:05:00,28.9,19.3,30.36,South,180,5.1,5.1,67,0.00,CLR,,0.00,WeatherDisplay:10.37,2013-04-04 13:05:00,
2013-04-04 09:10:00,29.5,19.5,30.36,SSW,202,1.1,1.1,66,0.00,CLR,,0.00,WeatherDisplay:10.37,2013-04-04 13:10:00,
2013-04-04 09:15:00,29.8,19.5,30.35,SSW,202,0.0,0.0,65,0.00,CLR,,0.00,WeatherDisplay:10.37,2013-04-04 13:15:00,
2013-04-04 09:20:00,30.6,19.8,30.36,SW,225,5.8,5.8,64,0.00,CLR,,0.00,WeatherDisplay:10.37,2013-04-04 13:20:00,
2013-04-04 09:25:00,30.9,19.8,30.36,SSW,202,8.1,8.3,63,0.00,CLR,,0.00,WeatherDisplay:10.37,2013-04-04 13:25:00,
2013-04-04 09:30:00,31.3,19.4,30.36,SSW,202,6.9,7.2,61,0.00,CLR,,0.00,WeatherDisplay:10.37,2013-04-04 13:30:00,
2013-04-04 09:35:00,31.8,19.5,30.36,South,180,4.9,5.1,60,0.00,CLR,,0.00,WeatherDisplay:10.37,2013-04-04 13:35:00,
2013-04-04 09:40:00,32.2,19.4,30.36,South,180,10.5,10.5,59,0.00,CLR,,0.00,WeatherDisplay:10.37,2013-04-04 13:40:00,
2013-04-04 09:45:00,32.5,19.8,30.36,SW,225,10.4,10.5,59,0.00,CLR,,0.00,WeatherDisplay:10.37,2013-04-04 13:45:00,
2013-04-04 09:50:00,32.9,19.7,30.36,South,180,8.1,8.1,58,0.00,CLR,,0.00,WeatherDisplay:10.37,2013-04-04 13:50:00,
2013-04-04 09:55:00,33.3,19.7,30.35,South,180,6.9,7.4,57,0.00,CLR,,0.00,WeatherDisplay:10.37,2013-04-04 13:55:00,
2013-04-04 10:00:00,33.6,20.0,30.35,South,180,3.5,3.5,57,0.00,CLR,,0.00,WeatherDisplay:10.37,2013-04-04 14:00:00,
2013-04-04 10:05:00,34.3,20.3,30.35,South,180,6.9,6.9,56,0.00,CLR,,0.00,WeatherDisplay:10.37,2013-04-04 14:05:00,
2013-04-04 10:10:00,34.3,19.8,30.35,SW,225,4.6,7.2,55,0.00,CLR,,0.00,WeatherDisplay:10.37,2013-04-04 14:10:00,
2013-04-04 10:15:00,34.9,20.3,30.35,SW,225,9.2,9.2,55,0.00,CLR,,0.00,WeatherDisplay:10.37,2013-04-04 14:15:00,
2013-04-04 10:22:00,35.4,20.4,30.34,South,180,4.6,4.6,54,0.00,CLR,,0.00,WeatherDisplay:10.37,2013-04-04 14:22:00,
2013-04-04 10:27:00,35.8,20.3,30.34,South,180,7.2,7.2,53,0.00,CLR,,0.00,WeatherDisplay:10.37,2013-04-04 14:27:00,
2013-04-04 10:33:00,36.1,20.2,30.33,SW,225,5.8,5.8,52,0.00,CLR,,0.00,WeatherDisplay:10.37,2013-04-04 14:33:00,
2013-04-04 10:38:00,36.3,19.9,30.34,SSW,202,4.6,4.7,51,0.00,CLR,,0.00,WeatherDisplay:10.37,2013-04-04 14:38:00,
2013-04-04 10:44:00,36.3,19.4,30.33,SSW,202,0.0,0.0,50,0.00,CLR,,0.00,WeatherDisplay:10.37,2013-04-04 14:44:00,
2013-04-04 10:49:00,36.5,20.1,30.33,SSE,158,6.0,6.0,51,0.00,CLR,,0.00,WeatherDisplay:10.37,2013-04-04 14:49:00,
2013-04-04 10:54:00,36.5,20.1,30.33,SSE,158,4.6,4.6,51,0.00,CLR,,0.00,WeatherDisplay:10.37,2013-04-04 14:54:00,
2013-04-04 10:59:00,36.7,20.2,30.32,SSW,202,8.1,8.1,51,0.00,CLR,,0.00,WeatherDisplay:10.37,2013-04-04 14:59:00,
2013-04-04 11:05:00,36.7,19.8,30.32,SSW,197,9.0,12.0,50,0.00,CLR,CLR,0.00,WeatherDisplay:10.37,2013-04-04 15:05:00,
2013-04-04 11:10:00,37.0,20.1,30.32,SSW,202,2.3,2.7,50,0.00,CLR,,0.00,WeatherDisplay:10.37,2013-04-04 15:10:00,
2013-04-04 11:15:00,37.2,20.3,30.32,South,180,6.9,7.2,50,0.00,CLR,,0.00,WeatherDisplay:10.37,2013-04-04 15:15:00,
2013-04-04 11:22:00,37.4,19.5,30.32,SSW,202,8.1,8.1,48,0.00,CLR,,0.00,WeatherDisplay:10.37,2013-04-04 15:22:00,
2013-04-04 11:28:00,37.6,20.1,30.32,South,180,11.5,11.5,49,0.00,CLR,,0.00,WeatherDisplay:10.37,2013-04-04 15:28:00,
2013-04-04 11:33:00,37.6,19.6,30.32,SSW,202,4.6,4.6,48,0.00,CLR,,0.00,WeatherDisplay:10.37,2013-04-04 15:33:00,
2013-04-04 11:38:00,38.1,20.6,30.32,South,180,10.4,10.4,49,0.00,CLR,,0.00,WeatherDisplay:10.37,2013-04-04 15:38:00,
2013-04-04 11:43:00,38.8,20.8,30.31,SSW,202,3.8,3.8,48,0.00,CLR,,0.00,WeatherDisplay:10.37,2013-04-04 15:43:00,
2013-04-04 11:48:00,39.0,21.5,30.31,SW,225,9.2,9.6,49,0.00,CLR,,0.00,WeatherDisplay:10.37,2013-04-04 15:48:00,
2013-04-04 11:54:00,39.6,21.5,30.30,South,180,4.6,4.6,48,0.00,CLR,,0.00,WeatherDisplay:10.37,2013-04-04 15:54:00,
2013-04-04 11:59:00,39.9,21.3,30.30,SSW,202,2.3,2.3,47,0.00,CLR,,0.00,WeatherDisplay:10.37,2013-04-04 15:59:00,
2013-04-04 12:04:00,40.3,21.1,30.29,SSW,202,8.1,8.1,46,0.00,CLR,,0.00,WeatherDisplay:10.37,2013-04-04 16:04:00,
2013-04-04 12:09:00,41.2,21.9,30.29,SSW,202,0.0,0.0,46,0.00,CLR,,0.00,WeatherDisplay:10.37,2013-04-04 16:09:00,
2013-04-04 12:15:00,41.5,22.3,30.29,SW,214,6.0,9.0,46,0.00,CLR,CLR,0.00,WeatherDisplay:10.37,2013-04-04 16:15:00,
2013-04-04 12:20:00,41.7,21.9,30.28,SSW,210,6.0,6.0,45,0.00,CLR,CLR,0.00,WeatherDisplay:10.37,2013-04-04 16:20:00,
2013-04-04 12:25:00,41.7,21.9,30.28,SSW,197,5.0,6.0,45,0.00,CLR,CLR,0.00,WeatherDisplay:10.37,2013-04-04 16:25:00,
2013-04-04 12:30:00,42.1,21.7,30.28,South,186,5.0,5.0,44,0.00,CLR,CLR,0.00,WeatherDisplay:10.37,2013-04-04 16:30:00,
2013-04-04 12:35:00,42.1,21.7,30.28,South,180,5.0,5.0,44,0.00,CLR,CLR,0.00,WeatherDisplay:10.37,2013-04-04 16:35:00,
2013-04-04 12:40:00,43.2,22.7,30.28,South,180,5.0,5.0,44,0.00,CLR,CLR,0.00,WeatherDisplay:10.37,2013-04-04 16:40:00,
2013-04-04 12:45:00,43.2,22.1,30.27,South,180,5.0,5.0,43,0.00,CLR,CLR,0.00,WeatherDisplay:10.37,2013-04-04 16:45:00,
2013-04-04 12:50:00,43.5,22.5,30.27,SSE,158,6.9,6.9,43,0.00,CLR,,0.00,WeatherDisplay:10.37,2013-04-04 16:50:00,
2013-04-04 12:55:00,43.5,22.5,30.26,SSE,158,6.9,6.9,43,0.00,CLR,,0.00,WeatherDisplay:10.37,2013-04-04 16:55:00,
2013-04-04 13:00:00,43.5,22.5,30.26,South,180,6.9,6.9,43,0.00,CLR,,0.00,WeatherDisplay:10.37,2013-04-04 17:00:00,
2013-04-04 13:07:00,44.2,22.6,30.25,SSW,202,3.5,3.5,42,0.00,CLR,,0.00,WeatherDisplay:10.37,2013-04-04 17:07:00,
2013-04-04 13:13:00,44.4,22.7,30.25,SSE,158,8.1,8.1,42,0.00,CLR,,0.00,WeatherDisplay:10.37,2013-04-04 17:13:00,
2013-04-04 13:19:00,44.6,22.9,30.24,SSW,202,8.1,8.1,42,0.00,CLR,,0.00,WeatherDisplay:10.37,2013-04-04 17:19:00,
2013-04-04 13:24:00,44.8,23.1,30.24,SSE,158,6.9,6.9,42,0.00,CLR,,0.00,WeatherDisplay:10.37,2013-04-04 17:24:00,
2013-04-04 13:29:00,44.8,22.5,30.24,South,180,4.7,4.7,41,0.00,CLR,,0.00,WeatherDisplay:10.37,2013-04-04 17:29:00,
2013-04-04 13:34:00,45.0,23.2,30.24,South,180,6.9,7.1,42,0.00,CLR,,0.00,WeatherDisplay:10.37,2013-04-04 17:34:00,
2013-04-04 13:40:00,45.0,22.6,30.23,South,178,12.0,12.0,41,0.00,CLR,CLR,0.00,WeatherDisplay:10.37,2013-04-04 17:40:00,
2013-04-04 13:45:00,45.1,22.8,30.23,ESE,112,3.5,3.5,41,0.00,CLR,,0.00,WeatherDisplay:10.37,2013-04-04 17:45:00,
2013-04-04 13:50:00,45.3,23.0,30.22,South,180,8.1,8.1,41,0.00,CLR,,0.00,WeatherDisplay:10.37,2013-04-04 17:50:00,
2013-04-04 13:55:00,45.5,23.1,30.22,South,180,10.1,10.1,41,0.00,CLR,,0.00,WeatherDisplay:10.37,2013-04-04 17:55:00,
2013-04-04 14:00:00,45.3,23.0,30.22,SW,225,4.6,4.6,41,0.00,CLR,,0.00,WeatherDisplay:10.37,2013-04-04 18:00:00,
2013-04-04 14:05:00,45.3,22.4,30.22,SSW,202,9.2,9.4,40,0.00,CLR,,0.00,WeatherDisplay:10.37,2013-04-04 18:05:00,
2013-04-04 14:10:00,45.1,22.2,30.22,SW,225,7.2,7.2,40,0.00,CLR,,0.00,WeatherDisplay:10.37,2013-04-04 18:10:00,
2013-04-04 14:15:00,45.1,22.2,30.22,SSW,202,4.6,4.7,40,0.00,CLR,,0.00,WeatherDisplay:10.37,2013-04-04 18:15:00,
2013-04-04 14:20:00,45.1,22.2,30.22,SSW,202,10.4,10.4,40,0.00,CLR,,0.00,WeatherDisplay:10.37,2013-04-04 18:20:00,
2013-04-04 14:25:00,45.1,22.2,30.21,South,180,13.8,13.8,40,0.00,CLR,,0.00,WeatherDisplay:10.37,2013-04-04 18:25:00,
2013-04-04 14:30:00,45.0,22.1,30.21,SSE,158,6.9,6.9,40,0.00,CLR,,0.00,WeatherDisplay:10.37,2013-04-04 18:30:00,
2013-04-04 14:35:00,45.0,22.1,30.21,South,180,3.8,3.8,40,0.00,CLR,,0.00,WeatherDisplay:10.37,2013-04-04 18:35:00,
2013-04-04 14:41:00,45.0,22.1,30.21,SSW,202,6.9,6.9,40,0.00,CLR,,0.00,WeatherDisplay:10.37,2013-04-04 18:41:00,
2013-04-04 14:46:00,45.0,22.1,30.21,SSW,202,9.2,9.2,40,0.00,CLR,,0.00,WeatherDisplay:10.37,2013-04-04 18:46:00,
2013-04-04 14:52:00,44.8,21.9,30.21,SSW,202,5.1,5.1,40,0.00,CLR,,0.00,WeatherDisplay:10.37,2013-04-04 18:52:00,
2013-04-04 14:57:00,44.6,21.7,30.22,SW,225,6.3,6.3,40,0.00,CLR,,0.00,WeatherDisplay:10.37,2013-04-04 18:57:00,
2013-04-04 15:02:00,44.4,21.6,30.22,SW,225,8.1,8.1,40,0.00,CLR,,0.00,WeatherDisplay:10.37,2013-04-04 19:02:00,
2013-04-04 15:07:00,44.4,21.6,30.21,SSW,202,11.5,11.5,40,0.00,CLR,,0.00,WeatherDisplay:10.37,2013-04-04 19:07:00,
2013-04-04 15:12:00,44.4,21.6,30.21,SSE,158,6.9,6.9,40,0.00,CLR,,0.00,WeatherDisplay:10.37,2013-04-04 19:12:00,
2013-04-04 15:17:00,44.4,21.6,30.21,SW,225,10.4,10.4,40,0.00,CLR,,0.00,WeatherDisplay:10.37,2013-04-04 19:17:00,
2013-04-04 15:22:00,44.2,20.8,30.20,SW,225,6.9,6.9,39,0.00,CLR,,0.00,WeatherDisplay:10.37,2013-04-04 19:22:00,
2013-04-04 15:27:00,44.1,20.7,30.20,SSW,202,3.5,3.5,39,0.00,CLR,,0.00,WeatherDisplay:10.37,2013-04-04 19:27:00,
2013-04-04 15:33:00,44.1,20.7,30.20,SSW,202,12.7,12.7,39,0.00,CLR,,0.00,WeatherDisplay:10.37,2013-04-04 19:33:00,
2013-04-04 15:38:00,44.1,20.7,30.19,South,180,9.2,9.2,39,0.00,CLR,,0.00,WeatherDisplay:10.37,2013-04-04 19:38:00,
2013-04-04 15:43:00,43.9,20.5,30.19,South,180,13.8,13.8,39,0.00,CLR,,0.00,WeatherDisplay:10.37,2013-04-04 19:43:00,
2013-04-04 15:48:00,43.7,20.3,30.20,South,180,6.9,6.9,39,0.00,CLR,,0.00,WeatherDisplay:10.37,2013-04-04 19:48:00,
2013-04-04 15:53:00,43.9,20.5,30.19,South,180,4.6,4.6,39,0.00,CLR,,0.00,WeatherDisplay:10.37,2013-04-04 19:53:00,
2013-04-04 15:58:00,43.9,20.5,30.19,South,180,6.9,6.9,39,0.00,CLR,,0.00,WeatherDisplay:10.37,2013-04-04 19:58:00,
2013-04-04 16:03:00,43.9,20.5,30.19,SSW,202,8.1,8.3,39,0.00,CLR,,0.00,WeatherDisplay:10.37,2013-04-04 20:03:00,
2013-04-04 16:08:00,43.9,20.5,30.19,SSW,202,6.9,7.2,39,0.00,CLR,,0.00,WeatherDisplay:10.37,2013-04-04 20:08:00,
2013-04-04 16:13:00,43.9,20.5,30.18,SE,135,11.5,11.5,39,0.00,CLR,,0.00,WeatherDisplay:10.37,2013-04-04 20:13:00,
2013-04-04 16:18:00,43.9,20.5,30.18,SSE,158,10.4,10.4,39,0.00,CLR,,0.00,WeatherDisplay:10.37,2013-04-04 20:18:00,
2013-04-04 16:23:00,44.1,20.7,30.18,SSW,202,8.1,8.2,39,0.00,CLR,,0.00,WeatherDisplay:10.37,2013-04-04 20:23:00,
2013-04-04 16:28:00,44.1,20.7,30.18,South,180,9.2,9.2,39,0.00,CLR,,0.00,WeatherDisplay:10.37,2013-04-04 20:28:00,
2013-04-04 16:33:00,43.9,20.5,30.19,South,180,11.5,11.5,39,0.00,CLR,,0.00,WeatherDisplay:10.37,2013-04-04 20:33:00,
2013-04-04 16:38:00,43.7,20.3,30.18,SSE,158,9.4,9.4,39,0.00,CLR,,0.00,WeatherDisplay:10.37,2013-04-04 20:38:00,
2013-04-04 16:43:00,43.5,19.6,30.18,SSW,202,8.3,8.3,38,0.00,CLR,,0.00,WeatherDisplay:10.37,2013-04-04 20:43:00,
2013-04-04 16:48:00,43.5,20.2,30.17,South,180,4.7,4.7,39,0.00,CLR,,0.00,WeatherDisplay:10.37,2013-04-04 20:48:00,
2013-04-04 16:53:00,43.3,20.0,30.16,South,180,4.6,4.6,39,0.00,CLR,,0.00,WeatherDisplay:10.37,2013-04-04 20:53:00,
2013-04-04 16:58:00,43.5,20.2,30.16,South,180,6.9,6.9,39,0.00,CLR,,0.00,WeatherDisplay:10.37,2013-04-04 20:58:00,
2013-04-04 17:03:00,43.5,20.2,30.16,SSE,158,5.8,5.8,39,0.00,CLR,,0.00,WeatherDisplay:10.37,2013-04-04 21:03:00,
2013-04-04 17:08:00,43.3,20.0,30.16,SE,135,3.5,3.5,39,0.00,CLR,,0.00,WeatherDisplay:10.37,2013-04-04 21:08:00,
2013-04-04 17:13:00,43.3,20.0,30.15,South,180,6.9,6.9,39,0.00,CLR,,0.00,WeatherDisplay:10.37,2013-04-04 21:13:00,
2013-04-04 17:18:00,43.3,19.4,30.15,South,180,3.8,3.8,38,0.00,CLR,,0.00,WeatherDisplay:10.37,2013-04-04 21:18:00,
2013-04-04 17:23:00,43.3,20.0,30.14,South,180,3.5,3.5,39,0.00,CLR,,0.00,WeatherDisplay:10.37,2013-04-04 21:23:00,
2013-04-04 17:28:00,43.3,20.0,30.14,South,180,6.9,6.9,39,0.00,CLR,,0.00,WeatherDisplay:10.37,2013-04-04 21:28:00,
2013-04-04 17:33:00,43.3,20.0,30.14,South,180,0.0,0.0,39,0.00,CLR,,0.00,WeatherDisplay:10.37,2013-04-04 21:33:00,
2013-04-04 17:39:00,43.2,19.2,30.14,SSE,158,4.6,4.7,38,0.00,CLR,,0.00,WeatherDisplay:10.37,2013-04-04 21:39:00,
2013-04-04 17:44:00,43.0,19.1,30.14,SSE,158,5.8,6.3,38,0.00,CLR,,0.00,WeatherDisplay:10.37,2013-04-04 21:44:00,
2013-04-04 17:50:00,43.0,19.1,30.14,SSE,168,3.0,6.0,38,0.00,CLR,CLR,0.00,WeatherDisplay:10.37,2013-04-04 21:50:00,
2013-04-04 17:55:00,43.0,19.1,30.14,SSE,155,3.0,6.0,38,0.00,CLR,CLR,0.00,WeatherDisplay:10.37,2013-04-04 21:55:00,
2013-04-04 18:00:00,42.7,19.4,30.13,SSE,150,6.0,6.0,39,0.00,CLR,CLR,0.00,WeatherDisplay:10.37,2013-04-04 22:00:00,
2013-04-04 18:05:00,42.6,19.4,30.14,SSE,148,1.0,5.0,39,0.00,CLR,CLR,0.00,WeatherDisplay:10.37,2013-04-04 22:05:00,
2013-04-04 18:10:00,42.6,19.4,30.13,SSE,150,6.0,6.0,39,0.00,CLR,CLR,0.00,WeatherDisplay:10.37,2013-04-04 22:10:00,
2013-04-04 18:15:00,42.6,19.4,30.14,South,171,7.0,7.0,39,0.00,CLR,CLR,0.00,WeatherDisplay:10.37,2013-04-04 22:15:00,
2013-04-04 18:20:00,42.6,19.4,30.14,SSE,158,0.0,0.0,39,0.00,CLR,,0.00,WeatherDisplay:10.37,2013-04-04 22:20:00,
2013-04-04 18:25:00,42.4,19.2,30.14,SSE,158,6.9,7.2,39,0.00,CLR,,0.00,WeatherDisplay:10.37,2013-04-04 22:25:00,
2013-04-04 18:30:00,42.4,19.2,30.14,SSE,158,4.6,4.6,39,0.00,CLR,,0.00,WeatherDisplay:10.37,2013-04-04 22:30:00,
2013-04-04 18:35:00,42.4,19.2,30.14,SSE,158,0.0,0.0,39,0.00,CLR,,0.00,WeatherDisplay:10.37,2013-04-04 22:35:00,
2013-04-04 18:40:00,42.4,19.2,30.14,SSE,158,4.6,4.9,39,0.00,CLR,,0.00,WeatherDisplay:10.37,2013-04-04 22:40:00,
2013-04-04 18:45:00,42.4,19.2,30.14,South,180,5.8,5.8,39,0.00,CLR,,0.00,WeatherDisplay:10.37,2013-04-04 22:45:00,
2013-04-04 18:50:00,42.1,18.9,30.14,South,180,6.9,6.9,39,0.00,CLR,,0.00,WeatherDisplay:10.37,2013-04-04 22:50:00,
2013-04-04 18:55:00,42.1,18.9,30.13,South,180,6.9,6.9,39,0.00,CLR,,0.00,WeatherDisplay:10.37,2013-04-04 22:55:00,
2013-04-04 19:00:00,42.1,18.9,30.13,South,180,8.1,8.1,39,0.00,CLR,,0.00,WeatherDisplay:10.37,2013-04-04 23:00:00,
2013-04-04 19:05:00,41.9,19.3,30.13,SE,135,2.3,2.3,40,0.00,CLR,,0.00,WeatherDisplay:10.37,2013-04-04 23:05:00,
2013-04-04 19:10:00,41.9,19.3,30.14,South,180,6.3,6.3,40,0.00,CLR,,0.00,WeatherDisplay:10.37,2013-04-04 23:10:00,
2013-04-04 19:15:00,41.9,19.3,30.14,South,180,10.4,10.4,40,0.00,CLR,,0.00,WeatherDisplay:10.37,2013-04-04 23:15:00,
2013-04-04 19:20:00,41.7,19.7,30.14,South,180,13.8,14.3,41,0.00,CLR,,0.00,WeatherDisplay:10.37,2013-04-04 23:20:00,
2013-04-04 19:27:00,41.5,20.7,30.14,SSE,158,5.8,6.3,43,0.00,CLR,,0.00,WeatherDisplay:10.37,2013-04-04 23:27:00,
2013-04-04 19:32:00,40.8,21.6,30.14,South,180,18.4,18.4,46,0.00,CLR,,0.00,WeatherDisplay:10.37,2013-04-04 23:32:00,
2013-04-04 19:37:00,39.9,21.8,30.14,SSW,202,12.7,12.7,48,0.00,CLR,,0.00,WeatherDisplay:10.37,2013-04-04 23:37:00,
2013-04-04 19:42:00,39.0,22.9,30.14,South,180,9.2,9.2,52,0.00,CLR,,0.00,WeatherDisplay:10.37,2013-04-04 23:42:00,
2013-04-04 19:47:00,38.8,23.2,30.14,South,180,8.1,8.1,53,0.00,CLR,,0.00,WeatherDisplay:10.37,2013-04-04 23:47:00,
2013-04-04 19:52:00,37.9,23.2,30.14,South,180,4.7,4.7,55,0.00,CLR,,0.00,WeatherDisplay:10.37,2013-04-04 23:52:00,
2013-04-04 19:57:00,37.2,23.8,30.14,SSW,202,5.4,5.4,58,0.00,CLR,,0.00,WeatherDisplay:10.37,2013-04-04 23:57:00,
2013-04-04 20:02:00,36.7,23.7,30.14,SSW,202,8.1,8.1,59,0.00,CLR,,0.00,WeatherDisplay:10.37,2013-04-05 00:02:00,
2013-04-04 20:07:00,36.7,23.7,30.14,SSW,202,1.6,1.6,59,0.00,CLR,,0.00,WeatherDisplay:10.37,2013-04-05 00:07:00,
2013-04-04 20:12:00,36.1,24.0,30.14,SSW,202,1.1,1.6,61,0.00,CLR,,0.00,WeatherDisplay:10.37,2013-04-05 00:12:00,
2013-04-04 20:17:00,36.1,24.0,30.13,SSW,202,1.1,1.6,61,0.00,CLR,,0.00,WeatherDisplay:10.37,2013-04-05 00:17:00,
2013-04-04 20:23:00,36.1,24.0,30.13,SSW,204,1.6,1.6,61,0.00,CLR,,0.00,WeatherDisplay:10.37,2013-04-05 00:23:00,
2013-04-04 20:28:00,36.1,24.0,30.13,SSW,204,1.1,1.6,61,0.00,CLR,,0.00,WeatherDisplay:10.37,2013-04-05 00:28:00,
2013-04-04 20:33:00,36.1,24.0,30.12,SSW,204,1.1,1.6,61,0.00,CLR,,0.00,WeatherDisplay:10.37,2013-04-05 00:33:00,
2013-04-04 20:38:00,36.1,24.0,30.12,SSW,204,1.6,1.6,61,0.00,CLR,,0.00,WeatherDisplay:10.37,2013-04-05 00:38:00,
2013-04-04 20:43:00,36.1,24.0,30.12,SSW,204,1.1,1.6,61,0.00,CLR,,0.00,WeatherDisplay:10.37,2013-04-05 00:43:00,
2013-04-04 20:48:00,36.1,24.0,30.12,SSW,204,1.6,1.6,61,0.00,CLR,,0.00,WeatherDisplay:10.37,2013-04-05 00:48:00,
2013-04-04 20:53:00,36.1,24.0,30.11,SSW,204,1.1,1.6,61,0.00,CLR,,0.00,WeatherDisplay:10.37,2013-04-05 00:53:00,
2013-04-04 20:58:00,36.1,24.0,30.11,SSW,204,1.6,1.6,61,0.00,CLR,,0.00,WeatherDisplay:10.37,2013-04-05 00:58:00,
2013-04-04 21:03:00,36.1,24.0,30.12,SSW,204,1.1,1.6,61,0.00,CLR,,0.00,WeatherDisplay:10.37,2013-04-05 01:03:00,
2013-04-04 21:08:00,36.1,24.0,30.13,SSW,204,1.6,1.6,61,0.00,CLR,,0.00,WeatherDisplay:10.37,2013-04-05 01:08:00,
2013-04-04 21:13:00,36.1,24.0,30.12,SSW,204,1.1,1.6,61,0.00,CLR,,0.00,WeatherDisplay:10.37,2013-04-05 01:13:00,
2013-04-04 21:18:00,36.1,24.0,30.12,SSW,204,1.6,1.6,61,0.00,CLR,,0.00,WeatherDisplay:10.37,2013-04-05 01:18:00,
2013-04-04 21:23:00,36.1,24.0,30.11,SSW,204,1.6,1.6,61,0.00,CLR,,0.00,WeatherDisplay:10.37,2013-04-05 01:23:00,
2013-04-04 21:28:00,34.3,25.9,30.11,South,180,5.8,5.8,71,0.00,CLR,,0.00,WeatherDisplay:10.37,2013-04-05 01:28:00,
2013-04-04 21:33:00,34.3,25.9,30.11,South,180,5.8,5.8,71,0.00,CLR,,0.00,WeatherDisplay:10.37,2013-04-05 01:33:00,
2013-04-04 21:38:00,34.3,25.9,30.11,South,180,5.8,5.8,71,0.00,CLR,,0.00,WeatherDisplay:10.37,2013-04-05 01:38:00,
2013-04-04 21:43:00,34.3,25.9,30.11,South,180,5.8,5.8,71,0.00,CLR,,0.00,WeatherDisplay:10.37,2013-04-05 01:43:00,
2013-04-04 21:49:00,34.0,25.6,30.11,South,180,5.8,5.8,71,0.00,CLR,,0.00,WeatherDisplay:10.37,2013-04-05 01:49:00,
2013-04-04 21:54:00,34.0,25.6,30.11,South,180,5.8,5.8,71,0.00,CLR,,0.00,WeatherDisplay:10.37,2013-04-05 01:54:00,
2013-04-04 21:59:00,34.0,25.6,30.10,South,181,5.8,5.8,71,0.00,CLR,,0.00,WeatherDisplay:10.37,2013-04-05 01:59:00,
2013-04-04 22:04:00,34.0,25.6,30.10,South,181,5.8,5.8,71,0.00,CLR,,0.00,WeatherDisplay:10.37,2013-04-05 02:04:00,
2013-04-04 22:09:00,34.0,25.6,30.10,South,181,5.8,5.8,71,0.00,CLR,,0.00,WeatherDisplay:10.37,2013-04-05 02:09:00,
2013-04-04 22:14:00,34.0,25.6,30.10,South,181,5.8,5.8,71,0.00,CLR,,0.00,WeatherDisplay:10.37,2013-04-05 02:14:00,
2013-04-04 22:19:00,34.0,25.6,30.10,South,181,5.8,5.8,71,0.00,CLR,,0.00,WeatherDisplay:10.37,2013-04-05 02:19:00,
2013-04-04 22:24:00,34.0,25.6,30.09,South,181,5.8,5.8,71,0.00,CLR,,0.00,WeatherDisplay:10.37,2013-04-05 02:24:00,
2013-04-04 22:29:00,34.0,25.6,30.09,South,181,5.8,5.8,71,0.00,CLR,,0.00,WeatherDisplay:10.37,2013-04-05 02:29:00,
2013-04-04 22:34:00,34.2,27.1,30.09,SSW,202,0.0,0.0,75,0.00,CLR,,0.00,WeatherDisplay:10.37,2013-04-05 02:34:00,
2013-04-04 22:39:00,34.2,27.1,30.08,SSW,202,0.0,0.0,75,0.18,RA,,0.18,WeatherDisplay:10.37,2013-04-05 02:39:00,
2013-04-04 22:44:00,34.2,27.1,30.07,SSW,202,0.0,0.0,75,0.18,RA,,0.18,WeatherDisplay:10.37,2013-04-05 02:44:00,
2013-04-04 22:49:00,34.2,27.1,30.07,SSW,202,0.0,0.0,75,0.18,,,0.18,WeatherDisplay:10.37,2013-04-05 02:49:00,
2013-04-04 22:55:00,34.2,27.1,30.07,SSW,202,0.0,0.0,75,0.00,CLR,CLR,0.18,WeatherDisplay:10.37,2013-04-05 02:55:00,
2013-04-04 23:00:00,34.2,27.1,30.06,SSW,202,0.0,0.0,75,0.00,CLR,CLR,0.18,WeatherDisplay:10.37,2013-04-05 03:00:00,
2013-04-04 23:05:00,34.2,27.1,30.06,SSW,203,0.0,0.0,75,0.00,CLR,CLR,0.18,WeatherDisplay:10.37,2013-04-05 03:05:00,
2013-04-04 23:10:00,34.2,27.1,30.06,SSW,204,0.0,0.0,75,0.00,CLR,CLR,0.18,WeatherDisplay:10.37,2013-04-05 03:10:00,
2013-04-04 23:15:00,34.2,27.1,30.06,SSW,204,0.0,0.0,75,0.00,CLR,CLR,0.18,WeatherDisplay:10.37,2013-04-05 03:15:00,
2013-04-04 23:20:00,34.2,27.1,30.06,SSW,204,0.0,0.0,75,0.00,CLR,CLR,0.18,WeatherDisplay:10.37,2013-04-05 03:20:00,
2013-04-04 23:25:00,34.2,27.1,30.05,SSW,204,0.0,0.0,75,0.00,CLR,CLR,0.18,WeatherDisplay:10.37,2013-04-05 03:25:00,
2013-04-04 23:30:00,34.2,27.1,30.05,SSW,204,0.0,0.0,75,0.00,CLR,CLR,0.18,WeatherDisplay:10.37,2013-04-05 03:30:00,
2013-04-04 23:35:00,34.2,27.1,30.05,SSW,204,0.0,0.0,75,0.00,CLR,CLR,0.18,WeatherDisplay:10.37,2013-04-05 03:35:00,
2013-04-04 23:40:00,34.2,27.1,30.05,SSW,204,0.0,0.0,75,0.00,CLR,CLR,0.18,WeatherDisplay:10.37,2013-04-05 03:40:00,
2013-04-04 23:45:00,34.2,27.1,30.04,SSW,204,0.0,0.0,75,0.00,CLR,CLR,0.18,WeatherDisplay:10.37,2013-04-05 03:45:00,
2013-04-04 23:50:00,34.2,27.1,30.05,SSW,204,0.0,0.0,75,0.00,CLR,CLR,0.18,WeatherDisplay:10.37,2013-04-05 03:50:00,
2013-04-04 23:55:00,34.2,27.1,30.04,SSW,204,0.0,0.0,75,0.00,CLR,CLR,0.18,WeatherDisplay:10.37,2013-04-05 03:55:00,